Weather History for KEVM - October, 2012

Change the Weather History Date:

Thursday, October 4, 2012

  Actual Average Record
Temperature  
Mean Temperature 46 °F -  
Max Temperature 59 °F 56 °F 78 °F (2011)
Min Temperature 33 °F 34 °F 22 °F (1988)
Degree Days  
Heating Degree Days 19    
Moisture  
Dew Point 38 °F    
Average Humidity 75    
Maximum Humidity 93    
Minimum Humidity 58    
Precipitation  
Precipitation 0.03 in - - ()
Sea Level Pressure  
Sea Level Pressure 29.76 in    
Wind  
Wind Speed 11 mph (SSW)    
Max Wind Speed 28 mph    
Max Gust Speed 38 mph    
Visibility 8 miles    
Events Rain , Snow    
Averages and records for this station are not official NWS values.
T = Trace of Precipitation, MM = Missing Value Source: NWS Daily Summary

Daily Weather History Graph

Daily Weather History Graph

Search for Another Location

Airport or City:

Trip Planner

Search our weather history database for the weather conditions in past years. The results will help you decide how hot, cold, wet, or windy it might be!

Date:

Astronomy

Oct. 04, 2012 Rise Set
Actual Time 7:13 AM CDT 6:42 PM CDT
Civil Twilight 6:43 AM CDT 7:12 PM CDT
Nautical Twilight 6:07 AM CDT 7:48 PM CDT
Astronomical Twilight 5:31 AM CDT 8:24 PM CDT
Moon 8:59 PM CDT (10/4) 11:50 AM CDT (10/4)
Length of Visible Light 12h 29m
Length of Day
11h 28m
Waning Gibbous, 82% of the Moon is Illuminated
Oct 4
Waning Gibbous
Oct 8
Last Quarter
Oct 15
New
Oct 21
First Quarter
Oct 29
Full

Hourly Weather History & Observations

Time (CDT) Temp. Windchill Dew Point Humidity Pressure Visibility Wind Dir Wind Speed Gust Speed Precip Events Conditions
12:10 AM 59.0 °F - 44.6 °F 59% 29.90 in 10.0 mi NE 4.6 mph - N/A   Clear
12:29 AM 55.4 °F - 42.8 °F 63% 29.89 in 10.0 mi NE 5.8 mph - N/A   Clear
12:49 AM 55.4 °F - 42.8 °F 63% 29.88 in 10.0 mi ENE 4.6 mph - N/A   Clear
1:10 AM 55.4 °F - 42.8 °F 63% 29.88 in 10.0 mi ENE 4.6 mph - N/A   Clear
1:29 AM 53.6 °F - 42.8 °F 67% 29.88 in 10.0 mi Calm Calm - N/A   Clear
1:49 AM 53.6 °F - 41.0 °F 62% 29.87 in 10.0 mi NE 3.5 mph - N/A   Clear
2:10 AM 53.6 °F - 42.8 °F 67% 29.86 in 10.0 mi NE 4.6 mph - N/A   Scattered Clouds
2:29 AM 53.6 °F - 42.8 °F 67% 29.85 in 10.0 mi NE 4.6 mph - N/A   Mostly Cloudy
2:49 AM 53.6 °F - 41.0 °F 62% 29.83 in 10.0 mi ENE 4.6 mph - N/A   Mostly Cloudy
3:10 AM 53.6 °F - 41.0 °F 62% 29.82 in 10.0 mi NE 8.1 mph - N/A   Mostly Cloudy
3:29 AM 53.6 °F - 41.0 °F 62% 29.81 in 10.0 mi NE 8.1 mph - N/A   Overcast
3:49 AM 53.6 °F - 41.0 °F 62% 29.80 in 10.0 mi ESE 3.5 mph - N/A   Overcast
4:10 AM 53.6 °F - 39.2 °F 58% 29.78 in 10.0 mi SE 6.9 mph - N/A   Mostly Cloudy
4:29 AM 53.6 °F - 39.2 °F 58% 29.77 in 10.0 mi ENE 6.9 mph - N/A   Scattered Clouds
4:49 AM 53.6 °F - 39.2 °F 58% 29.76 in 10.0 mi ENE 5.8 mph - N/A   Clear
5:10 AM 53.6 °F - 41.0 °F 62% 29.75 in 10.0 mi ENE 6.9 mph - N/A   Clear
5:29 AM 53.6 °F - 41.0 °F 62% 29.73 in 10.0 mi NE 5.8 mph - N/A   Clear
5:49 AM 53.6 °F - 41.0 °F 62% 29.71 in 10.0 mi NE 6.9 mph - N/A   Clear
6:10 AM 53.6 °F - 42.8 °F 67% 29.69 in 10.0 mi NE 6.9 mph - N/A   Scattered Clouds
6:29 AM 53.6 °F - 42.8 °F 67% 29.68 in 10.0 mi ESE 3.5 mph - N/A   Scattered Clouds
6:50 AM 59.0 °F - 46.4 °F 63% 29.67 in 10.0 mi SE 8.1 mph - N/A   Mostly Cloudy
7:09 AM 59.0 °F - 44.6 °F 59% 29.65 in 10.0 mi ESE 8.1 mph - N/A   Overcast
7:34 AM 59.0 °F - 44.6 °F 59% 29.65 in 10.0 mi SE 8.1 mph - N/A   Scattered Clouds
7:50 AM 59.0 °F - 44.6 °F 59% 29.64 in 10.0 mi SE 11.5 mph - N/A   Scattered Clouds
8:09 AM 59.0 °F - 44.6 °F 59% 29.64 in 10.0 mi SSE 12.7 mph 19.6 mph N/A   Clear
8:29 AM 59.0 °F - 44.6 °F 59% 29.63 in 10.0 mi SSE 12.7 mph 20.7 mph N/A   Scattered Clouds
8:50 AM 59.0 °F - 44.6 °F 59% 29.63 in 10.0 mi South 16.1 mph 27.6 mph N/A   Mostly Cloudy
9:09 AM 55.4 °F - 42.8 °F 63% 29.64 in 10.0 mi South 17.3 mph 25.3 mph N/A   Overcast
9:29 AM 51.8 °F - 42.8 °F 71% 29.66 in 10.0 mi South 20.7 mph 28.8 mph N/A   Overcast
9:50 AM 50.0 °F - 41.0 °F 71% 29.65 in 10.0 mi South 11.5 mph 19.6 mph N/A   Overcast
10:09 AM 50.0 °F - 41.0 °F 71% 29.65 in 10.0 mi South 12.7 mph 21.9 mph N/A   Overcast
10:29 AM 50.0 °F - 42.8 °F 76% 29.64 in 10.0 mi South 17.3 mph 23.0 mph N/A   Overcast
10:50 AM 48.2 °F - 41.0 °F 76% 29.64 in 10.0 mi South 21.9 mph 28.8 mph N/A   Overcast
11:09 AM 46.4 °F 40.4 °F 42.8 °F 87% 29.64 in 2.0 mi South 13.8 mph 23.0 mph N/A Rain Light Rain
11:29 AM 46.4 °F 40.4 °F 42.8 °F 87% 29.64 in 2.5 mi SSW 13.8 mph 23.0 mph N/A   Drizzle
11:50 AM 44.6 °F 36.6 °F 42.8 °F 93% 29.65 in 2.0 mi SSW 19.6 mph 27.6 mph 0.01 in   Drizzle
12:09 PM 42.8 °F 34.3 °F 41.0 °F 93% 29.67 in 2.5 mi SSW 19.6 mph 32.2 mph N/A   Overcast
12:29 PM 42.8 °F 33.8 °F 41.0 °F 93% 29.68 in 1.8 mi SSW 21.9 mph 27.6 mph N/A Rain Light Rain
12:50 PM 41.0 °F 30.5 °F 37.4 °F 87% 29.70 in 2.0 mi SW 26.5 mph 33.4 mph N/A   Overcast
1:09 PM 41.0 °F 32.5 °F 37.4 °F 87% 29.71 in 4.0 mi SW 17.3 mph 29.9 mph N/A   Overcast
1:29 PM 41.0 °F 31.9 °F 35.6 °F 81% 29.71 in 10.0 mi SW 19.6 mph 29.9 mph N/A   Overcast
1:50 PM 39.2 °F 28.3 °F 35.6 °F 87% 29.72 in 10.0 mi WSW 25.3 mph 35.7 mph N/A   Overcast
2:09 PM 41.0 °F 31.9 °F 33.8 °F 76% 29.73 in 10.0 mi WSW 19.6 mph 32.2 mph N/A   Overcast
2:30 PM 41.0 °F 31.9 °F 33.8 °F 76% 29.73 in 10.0 mi SW 19.6 mph 33.4 mph N/A   Overcast
2:49 PM 41.0 °F 31.4 °F 33.8 °F 76% 29.74 in 10.0 mi WSW 21.9 mph 29.9 mph N/A   Overcast
3:09 PM 41.0 °F 30.2 °F 32.0 °F 70% 29.75 in 10.0 mi SW 27.6 mph 38.0 mph N/A   Overcast
3:30 PM 39.2 °F 28.0 °F 32.0 °F 75% 29.76 in 10.0 mi WSW 26.5 mph 35.7 mph N/A   Overcast
3:49 PM 37.4 °F 26.1 °F 32.0 °F 81% 29.77 in 10.0 mi WSW 24.2 mph 35.7 mph N/A   Overcast
4:09 PM 37.4 °F 27.8 °F 32.0 °F 81% 29.78 in 10.0 mi WSW 17.3 mph 33.4 mph N/A   Overcast
4:30 PM 37.4 °F 26.9 °F 33.8 °F 87% 29.79 in 5.0 mi WSW 20.7 mph 31.1 mph N/A   Drizzle
4:49 PM 37.4 °F 26.6 °F 33.8 °F 87% 29.79 in 7.0 mi WSW 21.9 mph 27.6 mph N/A   Overcast
5:09 PM 37.4 °F 26.6 °F 33.8 °F 87% 29.80 in 5.0 mi WSW 21.9 mph 27.6 mph N/A Rain Light Rain
5:49 PM 37.4 °F 28.2 °F 33.8 °F 87% 29.81 in 10.0 mi WSW 16.1 mph 28.8 mph 0.01 in   Overcast
6:09 PM 37.4 °F 28.5 °F 33.8 °F 87% 29.82 in 5.0 mi WSW 15.0 mph 35.7 mph N/A Rain Light Rain
6:29 PM 37.4 °F 27.8 °F 33.8 °F 87% 29.82 in 2.5 mi West 17.3 mph 24.2 mph 0.01 in Rain Light Rain
6:49 PM 35.6 °F 26.2 °F 32.0 °F 87% 29.82 in 4.0 mi WSW 15.0 mph 21.9 mph 0.01 in Rain Rain
7:10 PM 35.6 °F 25.9 °F 32.0 °F 87% 29.83 in 7.0 mi WSW 16.1 mph 29.9 mph N/A Rain Light Rain
7:29 PM 35.6 °F 24.8 °F 32.0 °F 87% 29.83 in 10.0 mi West 19.6 mph 31.1 mph N/A   Mostly Cloudy
7:49 PM 35.6 °F 25.5 °F 32.0 °F 87% 29.83 in 10.0 mi WSW 17.3 mph 24.2 mph N/A   Overcast
8:10 PM 35.6 °F 25.2 °F 32.0 °F 87% 29.83 in 10.0 mi WSW 18.4 mph 28.8 mph N/A   Overcast
8:29 PM 35.6 °F 24.8 °F 32.0 °F 87% 29.84 in 10.0 mi WSW 19.6 mph 26.5 mph N/A   Overcast
8:49 PM 35.6 °F 24.8 °F 32.0 °F 87% 29.84 in 10.0 mi WSW 19.6 mph 26.5 mph N/A   Overcast
9:10 PM 35.6 °F 24.8 °F 32.0 °F 87% 29.84 in 10.0 mi WSW 19.6 mph 28.8 mph N/A   Overcast
9:29 PM 35.6 °F 25.9 °F 32.0 °F 87% 29.84 in 10.0 mi WSW 16.1 mph 28.8 mph N/A   Overcast
9:49 PM 35.6 °F 25.2 °F 32.0 °F 87% 29.84 in 7.0 mi WSW 18.4 mph 24.2 mph N/A Snow Light Snow
10:10 PM 35.6 °F 25.5 °F 32.0 °F 87% 29.84 in 10.0 mi WSW 17.3 mph 28.8 mph N/A   Overcast
10:29 PM 35.6 °F 25.9 °F 32.0 °F 87% 29.84 in 7.0 mi WSW 16.1 mph 26.5 mph N/A Snow Light Snow
10:50 PM 33.8 °F 22.8 °F 32.0 °F 93% 29.85 in 4.0 mi WSW 18.4 mph 26.5 mph N/A Snow Light Snow
11:09 PM 35.6 °F 25.5 °F 32.0 °F 87% 29.85 in 7.0 mi WSW 17.3 mph 26.5 mph N/A Snow Light Snow
11:29 PM 35.6 °F 25.2 °F 32.0 °F 87% 29.85 in 7.0 mi West 18.4 mph 24.2 mph N/A Snow Light Snow
11:50 PM 35.6 °F 25.5 °F 32.0 °F 87% 29.85 in 7.0 mi WSW 17.3 mph 23.0 mph N/A   Overcast